Hourly Data Report for May 21, 2003

SHERBROOKE A
QUEBEC

45°26'00.000" N
71°41'00.000" W
241.40 m
7028124
71610
YSC

Download Data

Hourly Data (May 2003)
Hourly Data Report for May 21, 2003
TIME
LST
Temp Definition
°C
Dew Point Definition
°C
Rel Hum Definition
%
Precip. Amount Definition
mm

Wind Dir Definition
10's deg

Wind Spd Definition
km/h
Visibility Definition
km
Stn Press Definition
kPa
Hmdx Definition


Wind Chill Definition


Weather Definition


00:00 18.8 LegendMM LegendMM   18 11 15.0 98.61      
01:00 16.7 LegendMM LegendMM   26 9 15.0 98.65      
02:00 16.3 LegendMM LegendMM   27 9 15.0 98.66      
03:00 15.4 LegendMM LegendMM   27 9 15.0 98.69      
04:00 13.9 LegendMM LegendMM   24 15 15.0 98.74     Rain
05:00 11.8 LegendMM LegendMM   21 9 12.9 98.80     Rain
06:00 11.8 LegendMM LegendMM   22 6 3.7 98.85     Moderate Rain
07:00 12.1 11.6 97   22 7 3.2 98.90     Rain, Fog
08:00 12.2 11.9 98   24 7 1.6 98.93     Rain, Fog
09:00 8.5 7.5 93   31 19 12.9 99.08     Drizzle
10:00 6.5 5.5 93   30 19 19.3 99.27     Cloudy
11:00 7.6 5.2 85   30 9 24.1 99.38     Cloudy
12:00 9.9 6.2 78   33 13 24.1 99.40     Mostly Cloudy
13:00 11.0 6.2 72   31 20 24.1 99.42     Mostly Cloudy
14:00 14.0 4.9 54   32 15 24.1 99.39     Mainly Clear
15:00 14.2 3.7 49   32 19 24.1 99.44     Mainly Clear
16:00 14.9 3.6 47   31 22 24.1 99.46     Mainly Clear
17:00 14.4 LegendMM LegendMM   33 19 15.0 99.48      
18:00 13.9 LegendMM LegendMM   32 7 15.0 99.50      
19:00 11.9 LegendMM LegendMM   34 9 15.0 99.55      
20:00 10.1 LegendMM LegendMM   1 6 15.0 99.63      
21:00 9.6 LegendMM LegendMM   36 7 15.0 99.68      
22:00 7.0 LegendMM LegendMM   5 9 15.0 99.70      
23:00 6.1 LegendMM LegendMM   4 11 15.0 99.72      

Notes on Data Quality.

Legend

  • E = Estimated
  • M = Missing
  • NA = Not Available*
  • [empty] = Indicates an unobserved value
Date modified: